Salina, KS

3:02 AM CST on January 23, 2018 (GMT -0600)
Salina Municipal

Weather History for KSLN - August, 2015

Change the Weather History Date:

Thursday, August 27, 2015

  Actual Average Record
Temperature  
Mean Temperature 81 °F 78 °F  
Max Temperature 89 °F 89 °F 111 °F (1921)
Min Temperature 72 °F 66 °F 42 °F (1916)
Degree Days  
Heating Degree Days 0 0  
Month to date heating degree days 0 0  
Since 1 June heating degree days 0 7  
Since 1 July heating degree days 0 0  
Cooling Degree Days 16 13  
Month to date cooling degree days 336 405  
Year to date cooling degree days 1416 1359  
Since 1 June cooling degree days 1326 1231  
Growing Degree Days 30 (Base 50)    
Moisture  
Dew Point 68 °F    
Average Humidity 68    
Maximum Humidity 90    
Minimum Humidity 46    
Precipitation  
Precipitation 0.10 in 0.11 in 1.73 in (1968)
Month to date precipitation 3.88 3.47  
Year to date precipitation 23.84 23.86  
Sea Level Pressure  
Sea Level Pressure 29.91 in    
Wind  
Wind Speed 15 mph (SSE)    
Max Wind Speed 32 mph    
Max Gust Speed 40 mph    
Visibility 10 miles    
Events Rain , Thunderstorm    
T = Trace of Precipitation, MM = Missing Value Source: NWS Daily Summary

Daily Weather History Graph

Daily Weather History Graph

Search for Another Location

Airport or City:

Trip Planner

Search our weather history database for the weather conditions in past years. The results will help you decide how hot, cold, wet, or windy it might be!

Date:

Astronomy

Aug. 27, 2015 Rise Set
Actual Time 6:54 AM CDT 8:08 PM CDT
Civil Twilight 6:27 AM CDT 8:36 PM CDT
Nautical Twilight 5:54 AM CDT 9:08 PM CDT
Astronomical Twilight 5:19 AM CDT 9:43 PM CDT
Moon 6:37 PM CDT (8/27) 4:24 AM CDT (8/27)
Length of Visible Light 14h 08m
Length of Day
13h 13m
Waxing Gibbous, 94% of the Moon is Illuminated
Aug 27
Waxing Gibbous
Aug 29
Full
Sep 5
Last Quarter
Sep 13
New
Sep 21
First Quarter

Hourly Weather History & Observations

Time (CDT) Temp. Heat Index Dew Point Humidity Pressure Visibility Wind Dir Wind Speed Gust Speed Precip Events Conditions
12:53 AM 75.0 °F - 69.1 °F 82% 29.97 in 10.0 mi SSE 10.4 mph - N/A   Clear
1:53 AM 75.0 °F - 70.0 °F 84% 29.96 in 10.0 mi SSE 10.4 mph - N/A   Clear
2:53 AM 75.0 °F - 70.0 °F 84% 29.95 in 10.0 mi SE 9.2 mph - N/A   Clear
3:53 AM 73.9 °F - 69.1 °F 85% 29.95 in 10.0 mi SSE 10.4 mph - N/A   Clear
4:53 AM 73.0 °F - 69.1 °F 87% 29.96 in 9.0 mi SSE 9.2 mph - N/A   Clear
5:53 AM 72.0 °F - 68.0 °F 87% 29.95 in 9.0 mi South 6.9 mph - N/A   Clear
6:53 AM 72.0 °F - 68.0 °F 87% 29.94 in 9.0 mi South 6.9 mph - N/A   Clear
7:53 AM 73.0 °F - 68.0 °F 84% 29.94 in 8.0 mi SSE 6.9 mph - N/A   Clear
8:53 AM 75.9 °F - 69.1 °F 79% 29.94 in 10.0 mi SSE 10.4 mph - N/A   Clear
9:53 AM 80.1 °F 82.9 °F 69.1 °F 69% 29.94 in 10.0 mi SSE 13.8 mph - N/A   Clear
10:53 AM 84.0 °F 88.4 °F 70.0 °F 63% 29.94 in 10.0 mi SSE 16.1 mph - N/A   Clear
11:53 AM 84.9 °F 88.8 °F 69.1 °F 59% 29.93 in 10.0 mi SSE 18.4 mph 29.9 mph N/A   Clear
12:53 PM 86.0 °F 89.4 °F 68.0 °F 55% 29.93 in 10.0 mi SSE 21.9 mph 33.4 mph N/A   Clear
1:53 PM 86.0 °F 89.4 °F 68.0 °F 55% 29.91 in 10.0 mi SSE 24.2 mph 31.1 mph N/A   Clear
2:53 PM 86.0 °F 88.2 °F 66.0 °F 51% 29.90 in 10.0 mi South 26.5 mph 36.8 mph N/A   Clear
3:53 PM 89.1 °F 91.3 °F 66.0 °F 46% 29.88 in 10.0 mi South 25.3 mph 38.0 mph N/A   Clear
4:53 PM 88.0 °F 89.3 °F 64.0 °F 45% 29.85 in 10.0 mi South 20.7 mph 35.7 mph N/A   Clear
5:53 PM 89.1 °F 91.3 °F 66.0 °F 46% 29.83 in 10.0 mi SSE 21.9 mph 28.8 mph N/A   Clear
6:53 PM 86.0 °F 87.6 °F 64.9 °F 49% 29.84 in 10.0 mi SSE 17.3 mph 27.6 mph N/A   Clear
7:53 PM 84.0 °F 85.4 °F 64.0 °F 51% 29.83 in 10.0 mi South 16.1 mph 23.0 mph N/A   Clear
8:53 PM 82.9 °F 84.6 °F 64.9 °F 54% 29.83 in 10.0 mi SSE 17.3 mph - N/A   Clear
9:53 PM 80.1 °F 82.3 °F 66.9 °F 64% 29.86 in 10.0 mi SE 15.0 mph - 0.00 in Rain Light Rain
10:43 PM 79.0 °F - 66.9 °F 66% 29.97 in 10.0 mi North 4.6 mph - 0.00 in Thunderstorm Scattered Clouds
10:53 PM 78.1 °F - 68.0 °F 71% 29.92 in 10.0 mi Calm Calm - 0.00 in Rain , Thunderstorm Light Rain
11:13 PM 77.0 °F - 69.1 °F 76% 29.95 in 7.0 mi SSE 10.4 mph - 0.03 in Rain Rain
11:53 PM 75.0 °F - 69.1 °F 82% 29.88 in 8.0 mi SSE 17.3 mph - 0.07 in Rain , Thunderstorm Light Rain